EHI
0 0 0 0 0 0 0 0 0 0 0 0 0 1 2 2 1 0 0 0 1 2 3 4 5 6 7 12 19 25 28 30 29 23 16 10 9 10 10 9 8 7 6 5
0 0 0 0 0 0 0 0 0 0 0 0 0 1 2 2 1 0 0 0 0 1 4 7 9 8 9 14 20 24 28 30 28 24 19 13 11 11 11 10 9 8 7 6
0 0 0 0 0 0 0 0 0 0 0 0 0 0 2 2 1 1 0 0 0 1 5 11 13 11 10 15 18 21 26 29 29 25 20 17 15 13 12 12 11 9 8 7
0 0 0 0 0 0 0 0 0 0 0 0 0 0 1 2 2 2 1 1 1 2 6 11 13 11 10 12 13 18 25 31 31 27 22 18 17 15 13 13 12 10 9 10
0 0 0 0 0 0 0 0 0 0 0 0 0 0 1 1 2 3 3 3 3 3 6 9 10 10 9 9 10 17 26 34 34 30 25 21 18 16 14 13 12 11 12 13
0 0 0 0 0 0 0 0 0 0 0 0 0 0 0 0 1 3 6 7 6 5 7 9 9 9 10 10 11 18 28 36 36 34 30 27 23 20 17 14 13 13 13 13
0 0 0 0 0 0 0 0 0 0 0 0 0 0 0 0 0 2 7 9 8 7 9 9 8 9 13 16 18 22 30 36 38 38 35 31 27 24 20 17 14 13 12 11
0 0 0 0 0 0 0 0 0 0 0 0 0 0 0 0 0 2 6 9 9 9 10 11 9 9 14 19 22 26 32 36 38 38 36 33 29 24 21 18 16 14 12 10
0 0 0 0 0 0 0 0 0 0 0 0 0 0 0 0 1 4 8 10 10 9 10 13 12 10 12 17 23 28 32 36 36 36 34 33 30 25 21 19 18 16 13 10
0 0 0 0 0 0 0 0 0 0 0 0 0 0 0 1 4 8 11 12 10 9 11 15 15 12 12 17 24 28 32 36 37 35 34 32 30 26 23 21 19 17 14 12
0 0 0 0 0 0 0 0 0 0 0 0 0 0 0 1 5 11 13 13 12 11 13 15 16 16 16 21 26 29 33 38 39 37 34 31 29 26 22 20 19 17 14 13
0 0 0 0 0 0 0 0 0 0 0 0 0 0 0 1 6 12 15 16 16 17 16 16 18 19 22 26 29 33 37 39 38 36 33 29 28 27 23 19 18 17 14 13
0 0 0 0 0 0 0 0 0 0 0 0 0 0 0 2 6 13 17 20 22 22 21 22 25 26 29 33 37 41 42 39 35 34 32 30 29 28 25 20 17 16 16 16
0 0 0 0 0 0 0 0 0 0 0 0 0 0 0 4 9 15 20 24 25 25 25 30 35 37 39 42 46 47 43 39 35 34 34 33 30 28 26 22 18 16 17 17
0 0 0 0 0 0 0 0 0 0 0 0 0 0 1 6 12 17 23 26 26 25 26 35 43 46 48 51 53 50 44 40 38 38 37 36 32 29 27 23 20 18 18 18
0 0 0 0 0 0 0 0 0 0 0 0 0 0 2 7 13 18 25 28 27 25 27 36 47 51 52 53 54 52 47 43 42 41 39 37 34 31 28 26 22 19 18 18
0 0 0 0 0 0 0 0 0 0 0 0 0 1 3 7 11 16 23 28 28 27 28 35 46 51 52 52 52 52 49 46 44 41 38 36 34 31 28 26 23 20 19 18
0 0 0 0 0 0 0 0 0 0 0 0 0 1 3 7 10 14 20 26 29 30 30 34 43 49 49 49 51 51 50 48 44 42 39 35 32 29 27 25 22 20 18 17
0 0 0 0 0 0 0 0 0 0 0 1 2 3 5 8 9 13 19 26 32 34 33 36 42 48 50 51 53 55 54 51 47 44 40 36 33 29 27 26 22 19 18 17
0 0 0 0 0 0 0 0 0 0 0 1 2 6 10 11 11 15 24 32 38 39 37 37 42 48 52 55 58 59 58 54 51 46 42 38 35 31 28 27 24 21 20 18
0 0 0 0 0 0 0 0 0 0 1 2 4 7 12 15 16 22 31 38 41 43 41 40 42 47 52 56 59 60 57 55 51 46 42 40 37 32 28 27 25 24 21 17
0 0 0 0 0 1 2 1 1 2 4 5 7 9 12 16 22 28 36 41 43 45 44 42 43 46 50 53 56 56 55 53 51 46 42 39 37 32 27 25 24 23 19 14
0 0 0 0 0 1 2 3 4 5 9 13 15 15 15 18 23 30 37 42 42 42 43 42 43 47 50 51 51 52 53 52 50 46 40 37 35 32 26 22 21 19 14 11
0 0 0 0 0 1 2 4 5 8 14 20 22 20 19 20 23 29 35 37 36 36 38 40 43 47 49 49 48 48 50 50 47 43 38 34 33 30 25 20 17 13 10 7
1 1 0 1 3 4 6 8 9 12 17 23 24 23 22 22 23 27 30 29 28 31 35 38 40 43 45 44 44 44 44 45 43 39 35 32 30 27 23 16 11 7 5 4
3 3 1 3 7 10 12 14 14 14 18 22 25 25 23 22 23 25 25 24 25 30 34 37 39 39 40 39 40 41 40 41 41 38 33 29 27 26 21 13 6 3 2 2
Wind_Speed
7 9 9 8 6 3 4 5 5 5 5 6 5 4 7 11 11 10 10 9 9 8 7 7 7 6 6 6 6 6 5 5 4 3 3 2 2 1 1 1 1 1 1 1
9 10 6 4 6 5 7 7 7 6 5 5 4 4 5 9 11 10 9 9 9 9 8 8 8 8 7 7 7 7 6 6 6 4 2 2 1 1 1 0 1 1 1 1
12 5 6 8 9 9 8 7 6 5 6 6 5 6 7 8 9 9 9 9 9 9 9 9 8 8 8 8 8 6 6 6 5 5 4 3 2 2 2 1 1 1 1 1
8 5 8 11 11 10 8 5 5 6 7 5 6 4 7 8 9 11 11 10 10 10 9 8 9 9 8 8 8 7 7 6 6 6 5 4 3 2 1 1 1 0 1 1
8 8 11 11 9 9 4 4 5 7 7 6 6 7 5 8 8 10 11 11 10 10 9 9 8 8 8 8 7 7 7 6 6 5 5 5 4 3 2 1 1 1 1 2
5 5 7 6 5 6 7 7 6 7 8 8 6 8 4 5 6 7 9 11 10 10 10 8 8 7 7 7 7 7 7 6 6 6 5 5 4 3 2 2 1 2 1 1
9 8 6 6 9 10 11 9 7 9 8 7 5 7 4 2 3 4 6 9 10 10 10 9 9 8 7 7 7 6 7 7 7 7 6 5 5 4 4 3 2 2 1 1
13 12 10 9 9 9 13 13 9 7 7 6 7 7 3 3 3 3 5 8 9 10 10 9 9 8 8 8 7 7 7 7 6 6 6 5 5 4 3 2 2 1 1 0
10 10 9 7 6 9 12 12 10 9 7 7 6 5 5 5 5 5 6 8 9 10 10 9 9 8 8 8 8 7 7 6 6 6 6 5 4 3 2 2 2 1 1 1
6 8 9 8 7 5 8 9 8 9 9 10 8 9 6 7 7 6 7 8 9 9 10 9 8 8 7 7 7 7 7 6 6 6 5 5 5 4 3 2 2 1 1 1
7 8 9 10 10 10 9 11 9 9 9 10 9 6 3 5 6 7 7 7 9 10 10 9 8 8 8 7 7 7 7 7 6 6 6 5 5 4 4 3 2 2 2 2
7 8 9 10 5 5 9 10 11 10 9 9 10 3 5 3 4 5 5 6 7 8 9 9 9 9 8 8 8 8 7 7 7 6 6 6 5 4 4 3 3 3 3 2
5 7 10 11 10 8 10 10 11 11 9 10 11 6 7 4 3 3 4 6 7 7 8 8 9 8 8 8 8 8 8 7 7 7 7 6 6 5 4 4 4 3 3 3
6 8 11 11 8 10 12 11 11 12 11 11 12 9 5 5 4 3 3 5 7 8 8 8 9 8 8 8 8 8 8 8 8 7 7 7 6 6 5 5 5 4 4 4
7 9 10 9 6 8 11 13 14 15 14 13 10 11 7 5 4 3 4 5 7 8 8 9 9 9 9 9 9 9 8 8 8 8 7 7 7 6 6 5 5 5 5 5
5 7 9 10 9 10 12 14 15 16 15 14 13 11 5 3 3 4 5 6 7 8 9 9 10 10 10 10 10 10 9 8 8 8 8 8 7 7 7 6 6 6 6 6
7 7 9 11 10 11 15 15 16 15 14 14 14 9 5 5 5 5 6 6 7 8 8 9 10 10 10 10 10 10 10 9 9 7 8 8 8 8 7 7 7 6 6 6
8 8 7 9 9 15 8 5 10 12 12 12 10 8 7 6 5 5 5 6 6 7 8 8 9 10 10 10 10 10 10 10 10 8 9 9 9 9 8 7 7 6 6 5
8 9 8 9 12 12 7 6 7 10 9 7 8 8 7 5 5 5 4 4 5 6 6 7 8 10 10 11 11 11 11 11 11 10 9 10 10 9 9 8 8 6 6 6
8 9 10 10 13 13 7 5 3 7 10 4 4 6 5 5 8 4 2 2 3 4 5 7 8 9 10 10 11 12 12 12 11 10 9 9 9 9 9 8 8 7 6 6
12 11 13 12 12 9 2 3 6 10 2 1 3 5 5 5 6 3 1 2 2 4 5 7 8 9 9 10 11 12 11 11 10 10 10 9 9 9 8 8 7 7 6 6
11 11 12 11 12 7 4 4 5 2 4 2 3 4 4 4 4 1 1 2 3 4 6 7 8 8 9 10 11 11 10 10 10 11 11 10 9 9 8 8 7 7 7 7
9 6 5 6 4 2 1 1 1 3 4 4 4 5 5 4 3 2 1 2 3 4 5 7 8 9 9 10 10 10 9 10 11 11 11 10 10 8 8 8 8 7 6 5
6 4 6 6 5 4 3 2 3 4 5 5 4 4 4 4 3 2 2 2 2 3 4 6 8 9 9 9 9 9 10 10 11 11 10 10 10 9 8 6 6 5 5 5
4 6 7 8 5 5 5 4 4 4 5 4 4 3 3 3 3 2 2 2 2 2 4 5 6 7 8 8 8 9 10 11 11 11 10 10 9 9 8 6 4 4 3 2
7 7 8 5 3 5 3 3 5 5 5 4 4 3 3 3 3 3 2 2 2 3 3 5 6 7 7 8 8 8 10 11 12 10 9 8 8 8 7 8 6 9 7 8
Wind_Direction
192 207 199 192 213 233 192 193 172 148 151 202 209 198 170 177 192 192 191 190 192 195 188 186 190 194 193 191 191 195 200 184 190 192 203 198 187 197 199 187 139 228 254 250
195 209 197 184 190 205 196 194 175 148 163 218 218 219 182 185 200 201 198 198 198 192 188 188 192 194 197 196 196 197 200 196 198 189 199 216 231 232 204 276 79 276 271 273
212 170 169 187 188 197 203 209 192 168 169 206 232 206 182 183 199 201 204 202 200 195 193 189 191 196 197 197 198 198 197 194 199 192 195 191 190 219 199 195 190 255 278 284
209 167 186 197 198 211 202 208 206 194 207 194 230 230 162 178 190 198 201 200 198 192 190 188 187 193 197 197 192 191 189 191 191 193 203 207 218 226 221 227 173 222 268 280
182 185 196 205 203 218 199 169 202 214 228 233 205 254 159 168 194 196 197 198 195 189 186 184 185 185 189 190 189 184 182 186 190 198 198 211 224 227 218 208 167 247 247 270
169 181 214 211 191 193 153 162 178 218 234 232 226 248 217 172 203 196 188 190 188 182 179 178 177 174 178 178 180 179 175 182 185 194 200 210 215 221 228 234 214 216 214 229
181 182 179 186 175 177 196 200 203 209 217 226 202 240 241 151 181 199 185 180 180 179 177 176 175 173 174 174 175 177 178 183 186 190 198 201 207 210 213 228 214 237 238 221
193 187 184 196 207 196 209 223 233 234 226 206 191 232 213 157 164 188 181 175 174 175 175 176 174 174 173 173 175 176 178 183 185 188 193 199 206 215 204 202 236 225 254 280
205 189 167 190 216 221 207 227 247 249 252 250 206 210 204 182 190 184 174 171 174 174 172 174 173 172 171 171 173 177 175 177 182 186 185 187 196 207 192 179 203 213 209 176
221 196 173 177 192 219 244 220 223 237 241 241 225 218 211 191 197 193 187 180 175 172 169 169 168 167 165 165 167 171 171 171 175 178 184 173 175 174 173 183 166 169 169 140
222 212 180 185 206 199 198 212 230 234 248 251 241 222 183 198 199 202 196 183 173 173 170 167 164 161 162 163 162 163 165 164 164 168 168 167 162 157 162 164 162 159 153 151
219 227 205 199 192 257 219 221 219 228 227 247 263 228 118 171 190 197 187 172 167 170 166 164 162 161 161 161 161 160 162 161 159 158 158 158 153 152 156 152 149 149 145 139
197 222 207 196 192 200 217 217 226 235 235 237 245 225 125 155 186 181 175 166 165 168 163 162 163 164 164 162 160 158 160 157 156 154 155 151 149 147 145 140 137 136 135 130
236 226 236 230 213 196 207 212 219 228 232 233 239 248 187 198 209 198 181 178 176 172 169 168 166 167 165 162 160 160 158 155 155 154 153 148 149 144 140 134 131 130 129 125
232 223 230 251 254 229 221 219 218 228 239 246 241 248 247 227 224 220 201 188 184 179 178 174 173 168 166 164 162 161 156 156 155 155 153 150 148 139 134 129 127 126 125 121
232 233 223 228 232 236 236 228 224 230 237 244 249 249 259 246 220 214 211 201 195 186 182 176 174 171 172 170 167 160 156 155 155 159 156 149 146 141 138 132 128 126 124 119
209 223 227 227 218 232 233 227 226 228 232 240 243 249 244 233 226 221 212 209 203 191 182 179 176 175 175 174 168 162 158 159 156 158 158 152 150 145 142 139 134 130 127 122
220 225 232 233 215 231 227 216 231 235 234 240 254 259 251 250 241 233 217 213 209 194 184 182 179 174 173 171 167 163 159 159 159 167 163 157 154 148 145 141 135 132 130 125
218 220 232 232 225 229 208 207 224 231 234 241 251 262 263 262 237 217 207 211 208 199 192 186 181 173 169 170 167 163 164 165 165 167 162 158 155 150 149 146 142 140 139 134
198 219 231 228 235 228 201 167 220 237 227 210 246 255 251 240 242 226 179 210 205 193 190 183 176 167 167 168 167 168 169 170 169 165 161 155 154 153 154 151 149 144 143 138
191 204 223 230 235 233 161 163 198 225 217 40 258 253 248 250 294 337 267 214 196 189 186 178 172 170 168 168 170 173 172 172 166 157 155 156 156 155 153 150 148 146 140 131
207 207 212 224 233 216 113 188 223 322 359 321 296 280 275 283 306 289 230 208 190 183 179 176 171 168 165 169 172 173 173 167 160 156 155 157 159 157 150 147 145 145 141 144
224 235 227 229 238 70 147 242 326 315 300 305 301 298 287 283 289 277 246 220 190 186 179 176 171 166 165 171 176 173 164 160 160 158 157 156 154 149 149 151 149 152 158 161
201 230 238 235 215 209 224 262 293 296 293 297 294 292 283 277 274 259 248 214 183 182 178 174 172 171 167 170 174 167 158 159 160 160 156 154 152 151 148 152 155 159 163 166
219 213 222 231 231 232 229 260 289 302 300 298 299 294 277 273 257 245 225 192 180 179 179 168 169 170 164 164 167 163 159 161 159 160 157 159 159 150 145 142 122 148 123 105
225 232 236 236 226 251 247 281 294 296 295 298 300 292 274 262 250 236 207 176 166 173 172 164 166 165 163 163 162 159 162 163 160 162 162 161 157 153 150 142 120 62 73 76